Погода в Каркатеевых

Россия / Ханты-Мансийский автономный округ - Югра     60°58′12″N   72°27′26″E
темп.,
°C
ветер,
м/с
пор.,
м/с
влажн.,
%
обл.,
%
осадки,
мм/ч
давл.,
гПа
погр.,
м
12 апреля, пн
пн1223:00+5юз61299100 2.3 1023264
02:00+5зюз612100100 0.3 1022300
05:00+2зсз61298100 0.3 1024438
08:00+2з51199100 0.0 1024401
11:00+3з6119714 0.0 1025448
14:00+5з711740 0.0 1025864
17:00+5з712735 0.0 1027674
20:00+2зсз613815 0.0 1028295
13 апреля, вт
вт1323:00+1з613855 0.0 1029354
02:00+1з714845 0.0 1030418
05:000з7139027 0.0 1031386
08:00+2з7128345 0.0 1031608
11:00+5з9146861 0.0 10291019
14:00+6з81367100 0.0 10291281
17:00+4з81381100 0.0 1028758
20:00+3з41084100 0.0 1028249
14 апреля, ср
ср1423:00+4зюз51188100 0.0 1025287
02:00+4зюз61382100 0.3 1022367
05:00+4зюз61281100 0.4 1020361
08:00+3зсз71294100 1.9 1020725
11:00+4зсз61093100 2.1 1022402
14:00+7сз5782100 0.0 1023768
17:00+5зсз3587100 0.1 1024183
20:00+5з2390100 0.0 102444
15 апреля, чт
чт1523:00+4ююз3693100 0.0 1022124
02:00+5ююз61196100 0.1 1019287
05:00+7юз71591100 0.2 1017399
08:00+9зюз71481100 0.1 1015525
11:00+14зюз10166093 0.1 1012971
14:00+16зюз11165233 0.0 10101442
17:00+16з1016445 0.0 10081754
20:00+9ссз9126894 0.0 1010470
16 апреля, пт
пт1623:00+3ссз51080100 0.5 1012821
02:00+3с7869100 0.2 10131013
05:00−3ссв7964100 0.2 1017639
08:00−4ссв8954100 0.0 1019864
11:00−3ссв8943100 0.0 10211150
14:00−3ссв893484 0.0 10221389
17:00−5ссв993382 0.0 10241440
20:00−7ссв810385 0.0 10261188